GW4592 Weather Reports


time (UTC)temp
F
wind
direction
speed
knots
gust
knots
rain 1hr
in
rain 24hr
in
rain mn
in
humidity
%
barometer
mb
20260508141644 73 347 1.7 7.0 0.00 0.00 0.00 68 1016.7
20260508141142 74 290 0.9 3.5 0.00 0.00 0.00 68 1016.9
20260508140639 74 19 1.7 4.3 0.00 0.00 0.00 67 1016.8
20260508140136 75 314 2.6 3.5 0.00 0.00 0.00 66 1016.9
20260508135632 75 346 2.6 5.2 0.00 0.00 0.00 67 1017.0
20260508135128 74 293 4.3 5.2 0.00 0.00 0.00 66 1017.0
20260508134625 75 41 1.7 5.2 0.00 0.00 0.00 65 1016.9
20260508134122 75 332 1.7 5.2 0.00 0.00 0.00 65 1016.8
20260508133618 76 330 2.6 5.2 0.00 0.00 0.00 66 1016.7
20260508133116 76 313 3.5 4.3 0.00 0.00 0.00 62 1017.0
20260508132613 76 304 3.5 7.0 0.00 0.00 0.00 61 1017.0
20260508132110 76 348 1.7 4.3 0.00 0.00 0.00 64 1016.9
20260508131606 77 323 4.3 6.1 0.00 0.00 0.00 63 1017.0
20260508131103 77 292 5.2 5.2 0.00 0.00 0.00 62 1017.0
20260508130559 76 31 1.7 8.7 0.00 0.00 0.00 62 1017.0
20260508130055 77 321 2.6 3.5 0.00 0.00 0.00 63 1017.0
20260508125551 77 334 3.5 3.5 0.00 0.00 0.00 62 1016.9
20260508125049 77 322 0.9 4.3 0.00 0.00 0.00 63 1017.1
20260508124548 77 337 1.7 6.1 0.00 0.00 0.00 62 1017.1
20260508124044 77 354 3.5 6.1 0.00 0.00 0.00 63 1017.3
20260508123542 78 202 1.7 2.6 0.00 0.00 0.00 61 1017.2
20260508123039 78 88 1.7 3.5 0.00 0.00 0.00 61 1017.3
20260508122536 77 309 0.9 5.2 0.00 0.00 0.00 64 1017.4
20260508122033 78 349 1.7 6.1 0.00 0.00 0.00 62 1017.4
20260508121531 77 325 1.7 4.3 0.00 0.00 0.00 63 1017.5
20260508121028 78 68 0.0 4.3 0.00 0.00 0.00 62 1017.4
20260508120525 78 324 2.6 4.3 0.00 0.00 0.00 61 1017.4
20260508120024 78 53 2.6 4.3 0.00 0.00 0.00 62 1017.6
20260508115521 77 295 5.2 7.0 0.00 0.00 0.00 64 1017.4
20260508115017 77 318 2.6 3.5 0.00 0.00 0.00 62 1017.5
20260508114515 77 356 3.5 6.1 0.00 0.00 0.00 63 1017.6
20260508114011 78 54 1.7 5.2 0.00 0.00 0.00 62 1017.6
20260508113508 78 333 1.7 5.2 0.00 0.00 0.00 62 1017.7
20260508113006 77 284 1.7 9.6 0.00 0.00 0.00 63 1017.5
20260508112502 77 342 2.6 5.2 0.00 0.00 0.00 63 1017.8
20260508111959 77 261 3.5 7.8 0.00 0.00 0.00 62 1017.7
20260508111456 76 302 3.5 7.8 0.00 0.00 0.00 63 1017.8
20260508110953 78 325 2.6 7.0 0.00 0.00 0.00 61 1017.9
20260508110451 77 316 1.7 5.2 0.00 0.00 0.00 62 1017.8
20260508105950 77 307 7.0 7.8 0.00 0.00 0.00 61 1017.9
20260508105447 77 315 3.5 7.8 0.00 0.00 0.00 62 1017.7
20260508104944 78 322 5.2 8.7 0.00 0.00 0.00 60 1017.8
20260508104442 78 349 2.6 6.1 0.00 0.00 0.00 61 1017.7
20260508103938 79 295 1.7 4.3 0.00 0.00 0.00 60 1017.6
20260508103435 78 327 0.9 4.3 0.00 0.00 0.00 61 1017.7
20260508102932 78 323 2.6 3.5 0.00 0.00 0.00 62 1017.7
20260508102431 77 336 2.6 5.2 0.00 0.00 0.00 62 1017.7
20260508101927 77 301 1.7 7.8 0.00 0.00 0.00 63 1017.9
20260508101425 77 328 2.6 7.0 0.00 0.00 0.00 63 1017.9
20260508100922 78 301 1.7 4.3 0.00 0.00 0.00 63 1018.0
20260508100421 77 307 1.7 4.3 0.00 0.00 0.00 63 1018.0
20260508095916 78 52 3.5 5.2 0.00 0.00 0.00 64 1017.9
20260508095415 77 309 5.2 5.2 0.00 0.00 0.00 63 1018.1
20260508094911 77 8 0.9 5.2 0.00 0.00 0.00 64 1018.0
20260508094408 77 347 1.7 7.8 0.00 0.00 0.00 64 1018.2
20260508093904 77 328 3.5 5.2 0.00 0.00 0.00 62 1018.1
20260508093402 78 331 4.3 4.3 0.00 0.00 0.00 63 1018.2
20260508092859 77 214 0.0 5.2 0.00 0.00 0.00 64 1018.6
20260508092357 77 337 1.7 5.2 0.00 0.00 0.00 62 1018.5
20260508091855 78 117 1.7 2.6 0.00 0.00 0.00 63 1018.5
20260508091351 76 315 3.5 7.0 0.00 0.00 0.00 64 1018.5
20260508090849 77 308 1.7 7.0 0.00 0.00 0.00 63 1018.7
20260508090348 78 8 1.7 6.1 0.00 0.00 0.00 61 1018.8
20260508085843 78 303 2.6 3.5 0.00 0.00 0.00 62 1018.5
20260508085340 79 186 3.5 4.3 0.00 0.00 0.00 60 1018.8
20260508084837 77 311 2.6 5.2 0.00 0.00 0.00 63 1018.6
20260508084333 79 333 0.0 4.3 0.00 0.00 0.00 61 1018.8
20260508083831 78 214 0.9 3.5 0.00 0.00 0.00 61 1018.8
20260508083329 77 285 1.7 4.3 0.00 0.00 0.00 62 1018.8
20260508082828 79 300 2.6 3.5 0.00 0.00 0.00 59 1018.8
20260508082326 78 49 1.7 3.5 0.00 0.00 0.00 60 1018.9
20260508081823 77 284 1.7 4.3 0.00 0.00 0.00 61 1018.9
20260508081320 77 322 1.7 2.6 0.00 0.00 0.00 61 1019.1
20260508080817 76 297 0.9 3.5 0.00 0.00 0.00 64 1019.2
20260508080315 75 295 2.6 3.5 0.00 0.00 0.00 64 1019.0
20260508075811 76 291 4.3 7.0 0.00 0.00 0.00 62 1019.3
20260508075309 76 338 2.6 7.8 0.00 0.00 0.00 63 1019.2
20260508074806 77 349 1.7 3.5 0.00 0.00 0.00 61 1019.3
20260508074303 77 303 2.6 3.5 0.00 0.00 0.00 61 1019.3
20260508073800 76 333 1.7 2.6 0.00 0.00 0.00 61 1019.1
20260508073258 75 332 1.7 7.0 0.00 0.00 0.00 63 1019.3
20260508072754 75 299 2.6 2.6 0.00 0.00 0.00 62 1019.4
20260508072251 75 324 1.7 5.2 0.00 0.00 0.00 62 1019.4
20260508071748 75 341 2.6 4.3 0.00 0.00 0.00 62 1019.3
20260508071247 75 306 3.5 4.3 0.00 0.00 0.00 62 1019.3
20260508070743 75 287 3.5 5.2 0.00 0.00 0.00 63 1019.1
20260508070242 74 338 2.6 3.5 0.00 0.00 0.00 63 1019.3
20260508065739 76 330 0.9 3.5 0.00 0.00 0.00 63 1019.3
20260508065237 74 325 0.0 1.7 0.00 0.00 0.00 63 1019.3
20260508064734 73 339 1.7 5.2 0.00 0.00 0.00 65 1019.4
20260508064232 75 293 1.7 3.5 0.00 0.00 0.00 62 1019.3
20260508063729 73 336 0.0 2.6 0.00 0.00 0.00 65 1019.4
20260508063227 72 318 2.6 4.3 0.00 0.00 0.00 65 1019.4
20260508062724 73 338 0.9 2.6 0.00 0.00 0.00 66 1019.3
20260508062222 71 321 0.0 1.7 0.00 0.00 0.00 69 1019.2
20260508061718 71 339 1.7 3.5 0.00 0.00 0.00 68 1019.5
20260508061215 71 293 2.6 3.5 0.00 0.00 0.00 68 1019.5
20260508060712 70 275 2.6 3.5 0.00 0.00 0.00 70 1019.5
20260508060210 72 331 1.7 3.5 0.00 0.00 0.00 67 1019.5
20260508055705 73 341 0.9 2.6 0.00 0.00 0.00 67 1019.6
20260508055202 71 295 0.0 2.6 0.00 0.00 0.00 70 1019.6
20260508054659 70 335 0.9 2.6 0.00 0.00 0.00 71 1019.7
20260508054156 69 261 1.7 3.5 0.00 0.00 0.00 72 1019.6
20260508053653 68 307 1.7 4.3 0.00 0.00 0.00 73 1019.6
20260508053151 69 276 0.9 4.3 0.00 0.00 0.00 74 1019.4
20260508052648 68 323 1.7 2.6 0.00 0.00 0.00 74 1019.3
20260508052145 67 310 1.7 2.6 0.00 0.00 0.00 75 1019.4
20260508051641 67 307 0.9 2.6 0.00 0.00 0.00 74 1019.6
20260508051136 66 286 2.6 2.6 0.00 0.00 0.00 74 1019.8
20260508050633 66 275 0.9 1.7 0.00 0.00 0.00 75 1019.7
20260508050131 66 224 2.6 3.5 0.00 0.00 0.00 74 1019.5
20260508045626 67 203 0.9 1.7 0.00 0.00 0.00 74 1019.7
20260508045125 66 142 1.7 1.7 0.00 0.00 0.00 75 1019.6
20260508044621 66 210 1.7 2.6 0.00 0.00 0.00 76 1019.6
20260508044117 65 202 2.6 2.6 0.00 0.00 0.00 77 1019.7
20260508043614 64 201 0.9 3.5 0.00 0.00 0.00 78 1019.7
20260508043112 64 221 0.0 3.5 0.00 0.00 0.00 79 1019.7
20260508042608 63 242 0.9 2.6 0.00 0.00 0.00 80 1019.8
20260508042106 63 204 2.6 2.6 0.00 0.00 0.00 80 1019.9
20260508041602 63 227 0.0 1.7 0.00 0.00 0.00 82 1019.7
20260508041058 62 238 0.9 0.9 0.00 0.00 0.00 82 1019.5
20260508040555 62 230 0.0 0.9 0.00 0.00 0.00 82 1019.6
20260508040053 61 200 0.9 1.7 0.00 0.00 0.00 83 1019.4
20260508035549 61 231 0.9 2.6 0.00 0.00 0.00 83 1019.1
20260508035047 60 205 1.7 2.6 0.00 0.00 0.00 83 1019.1
20260508034543 60 229 0.0 0.9 0.00 0.00 0.00 83 1019.1
20260508034041 60 205 1.7 1.7 0.00 0.00 0.00 83 1019.0
20260508033538 60 259 1.7 2.6 0.00 0.00 0.00 84 1018.8
20260508033037 59 246 0.9 1.7 0.00 0.00 0.00 84 1018.8
20260508032532 59 241 0.0 1.7 0.00 0.00 0.00 84 1018.6
20260508032031 59 269 0.0 0.9 0.00 0.00 0.00 85 1018.7
20260508031527 59 207 2.6 2.6 0.00 0.00 0.00 85 1018.7
20260508031022 59 229 1.7 1.7 0.00 0.00 0.00 85 1018.9
20260508030520 59 232 2.6 2.6 0.00 0.00 0.00 85 1018.7
20260508030018 58 245 1.7 1.7 0.00 0.00 0.00 85 1018.5
20260508025513 58 237 0.0 2.6 0.00 0.00 0.00 85 1018.6
20260508025011 58 237 1.7 2.6 0.00 0.00 0.00 85 1018.6
20260508024507 58 226 1.7 1.7 0.00 0.00 0.00 85 1018.5
20260508024003 58 296 0.0 0.9 0.00 0.00 0.00 85 1018.5
20260508023500 58 241 1.7 2.6 0.00 0.00 0.00 85 1018.6
20260508022958 58 218 1.7 2.6 0.00 0.00 0.00 85 1018.3
20260508022453 58 225 1.7 3.5 0.00 0.00 0.00 85 1018.3
20260508021950 58 222 1.7 4.3 0.00 0.00 0.00 85 1018.3
20260508021446 58 224 2.6 3.5 0.00 0.00 0.00 84 1018.3
20260508020942 58 255 1.7 2.6 0.00 0.00 0.00 85 1018.2
20260508020440 58 219 1.7 3.5 0.00 0.00 0.00 84 1018.2
20260508015937 59 207 2.6 3.5 0.00 0.00 0.00 84 1018.3
20260508015435 59 266 0.9 1.7 0.00 0.00 0.00 85 1018.0
20260508014931 59 242 1.7 2.6 0.00 0.00 0.00 85 1018.2
20260508014428 59 214 1.7 2.6 0.00 0.00 0.00 85 1018.3
20260508013924 59 231 1.7 2.6 0.00 0.00 0.00 85 1018.6
20260508013420 59 224 1.7 2.6 0.00 0.00 0.00 85 1018.6
20260508012918 58 216 1.7 2.6 0.00 0.00 0.00 85 1018.5
20260508012415 58 210 1.7 2.6 0.00 0.00 0.00 85 1018.3
20260508011912 58 306 0.0 1.7 0.00 0.00 0.00 85 1018.5
20260508011410 58 234 0.9 1.7 0.00 0.00 0.00 84 1018.7
20260508010907 58 233 0.9 1.7 0.00 0.00 0.00 84 1018.6
20260508010404 58 223 1.7 2.6 0.00 0.00 0.00 84 1018.6
20260508005901 58 214 1.7 2.6 0.00 0.00 0.00 84 1018.8
20260508005358 58 219 1.7 2.6 0.00 0.00 0.00 85 1018.9
20260508004854 59 208 1.7 3.5 0.00 0.00 0.00 85 1018.8
20260508004350 59 226 3.5 3.5 0.00 0.00 0.00 85 1018.9
20260508003847 58 251 1.7 2.6 0.00 0.00 0.00 84 1019.0
20260508003344 59 207 1.7 3.5 0.00 0.00 0.00 84 1019.1
20260508002841 59 247 0.9 2.6 0.00 0.00 0.00 84 1019.1
20260508002338 59 214 2.6 3.5 0.00 0.00 0.00 83 1019.0
20260508001834 59 200 1.7 3.5 0.00 0.00 0.00 83 1019.1
20260508001330 59 214 3.5 5.2 0.00 0.00 0.00 82 1019.1
20260508000827 60 239 1.7 3.5 0.00 0.00 0.00 82 1019.1
20260508000323 60 206 1.7 3.5 0.00 0.00 0.00 82 1019.3
20260507235820 60 228 1.7 2.6 0.00 0.00 0.00 83 1019.3
20260507235317 60 212 0.9 0.9 0.00 0.00 0.00 83 1019.2
20260507234814 60 219 1.7 2.6 0.00 0.00 0.00 83 1019.2
20260507234311 60 238 1.7 2.6 0.00 0.00 0.00 83 1019.2
20260507233807 60 283 0.9 1.7 0.00 0.00 0.00 82 1019.2
20260507233305 60 224 0.0 0.9 0.00 0.00 0.00 82 1019.3
20260507232803 60 225 1.7 1.7 0.00 0.00 0.00 82 1019.0
20260507232259 60 220 1.7 1.7 0.00 0.00 0.00 81 1019.0
20260507231756 60 211 1.7 2.6 0.00 0.00 0.00 81 1019.2
20260507231253 61 204 1.7 2.6 0.00 0.00 0.00 80 1019.4
20260507230749 61 205 1.7 3.5 0.00 0.00 0.00 80 1019.3
20260507230247 61 212 2.6 2.6 0.00 0.00 0.00 80 1019.4
20260507225746 61 206 1.7 2.6 0.00 0.00 0.00 80 1019.4
20260507225243 61 216 1.7 2.6 0.00 0.00 0.00 80 1019.4
20260507224738 61 201 1.7 2.6 0.00 0.00 0.00 80 1019.3
20260507224235 61 214 2.6 2.6 0.00 0.00 0.00 80 1019.5
20260507223732 61 215 0.9 1.7 0.00 0.00 0.00 80 1019.5
20260507223228 61 229 0.9 1.7 0.00 0.00 0.00 81 1019.6
20260507222725 61 219 1.7 2.6 0.00 0.00 0.00 81 1019.7
20260507222222 61 219 0.9 1.7 0.00 0.00 0.00 81 1019.7
20260507221719 61 283 0.0 3.5 0.00 0.00 0.00 81 1019.9
20260507221215 61 224 1.7 2.6 0.00 0.00 0.00 81 1019.8
20260507220711 61 227 1.7 1.7 0.00 0.00 0.00 81 1020.0
20260507220210 61 221 1.7 2.6 0.00 0.00 0.00 81 1019.9
20260507215705 61 256 1.7 1.7 0.00 0.00 0.00 82 1019.9
20260507215203 61 218 2.6 3.5 0.00 0.00 0.00 82 1019.7
20260507214700 61 218 1.7 2.6 0.00 0.00 0.00 83 1019.7
20260507214156 62 241 1.7 2.6 0.00 0.00 0.00 83 1019.8
20260507213652 62 250 0.9 2.6 0.00 0.00 0.00 83 1019.9
20260507213150 62 238 2.6 3.5 0.00 0.00 0.00 83 1019.8
20260507212646 62 232 1.7 1.7 0.00 0.00 0.00 83 1019.6
20260507212143 62 250 1.7 3.5 0.00 0.00 0.00 83 1019.5
20260507211640 63 225 0.9 0.9 0.00 0.00 0.00 84 1019.6
20260507211135 63 269 0.0 0.0 0.00 0.00 0.00 84 1019.4
20260507210633 62 272 0.9 1.7 0.00 0.00 0.00 84 1019.6
20260507210130 62 315 0.0 0.9 0.00 0.00 0.00 84 1019.4
20260507205626 62 317 0.9 0.9 0.00 0.00 0.00 83 1019.4
20260507205123 62 282 0.9 1.7 0.00 0.00 0.00 83 1019.4
20260507204619 62 304 0.0 1.7 0.00 0.00 0.00 83 1019.3
20260507204117 62 269 0.0 1.7 0.00 0.00 0.00 83 1019.2
20260507203615 63 315 1.7 1.7 0.00 0.00 0.00 82 1019.1
20260507203112 63 304 0.0 1.7 0.00 0.00 0.00 82 1019.1
20260507202607 63 287 0.9 1.7 0.00 0.00 0.00 82 1019.1
20260507202104 63 293 1.7 2.6 0.00 0.00 0.00 82 1018.9
20260507201559 63 291 1.7 1.7 0.00 0.00 0.00 82 1019.1
20260507201056 63 282 1.7 1.7 0.00 0.00 0.00 81 1018.9
20260507200551 63 278 1.7 1.7 0.00 0.00 0.00 81 1018.8
20260507200048 63 321 0.0 1.7 0.00 0.00 0.00 81 1018.9
20260507195545 63 310 1.7 2.6 0.00 0.00 0.00 80 1018.9
20260507195042 63 308 1.7 1.7 0.00 0.00 0.00 80 1018.8
20260507194538 63 295 1.7 2.6 0.00 0.00 0.00 80 1018.8
20260507194035 63 307 0.9 1.7 0.00 0.00 0.00 80 1018.8
20260507193532 63 306 0.0 2.6 0.00 0.00 0.00 79 1018.7
20260507193029 64 326 0.0 1.7 0.00 0.00 0.00 79 1018.7
20260507192525 64 285 0.0 1.7 0.00 0.00 0.00 79 1018.7
20260507192022 64 285 1.7 1.7 0.00 0.00 0.00 78 1018.7
20260507191517 64 286 0.0 3.5 0.00 0.00 0.00 78 1018.6
20260507191014 64 312 1.7 3.5 0.00 0.00 0.00 78 1018.8
20260507190512 64 285 0.9 1.7 0.00 0.00 0.00 77 1018.9
20260507190011 64 281 1.7 1.7 0.00 0.00 0.00 77 1019.0
20260507185508 64 280 1.7 2.6 0.00 0.00 0.00 77 1018.9
20260507185004 64 302 0.9 2.6 0.00 0.00 0.00 76 1018.9
20260507184503 64 321 0.9 2.6 0.00 0.00 0.00 76 1018.9
20260507184001 64 314 0.9 3.5 0.00 0.00 0.00 75 1019.0
20260507183456 64 328 1.7 3.5 0.00 0.00 0.00 75 1018.9
20260507182954 64 317 2.6 3.5 0.00 0.00 0.00 75 1019.0
20260507182449 64 321 1.7 3.5 0.00 0.00 0.00 75 1018.9
20260507181945 64 317 0.0 1.7 0.00 0.00 0.00 74 1018.9
20260507181442 65 322 1.7 3.5 0.00 0.00 0.00 74 1018.9
20260507180939 65 321 0.9 2.6 0.00 0.00 0.00 74 1018.9
20260507180436 65 290 3.5 3.5 0.00 0.00 0.00 73 1018.9
20260507175932 65 317 1.7 2.6 0.00 0.00 0.00 73 1018.7
20260507175428 65 327 1.7 3.5 0.00 0.00 0.00 73 1018.8
20260507174926 65 342 1.7 1.7 0.00 0.00 0.00 72 1018.5
20260507174423 65 331 1.7 1.7 0.00 0.00 0.00 72 1018.6
20260507173921 65 313 0.0 1.7 0.00 0.00 0.00 71 1018.7
20260507173418 65 329 1.7 4.3 0.00 0.00 0.00 71 1018.6
20260507172914 65 304 2.6 2.6 0.00 0.00 0.00 70 1018.7
20260507172411 65 291 1.7 1.7 0.00 0.00 0.00 69 1018.5
20260507171907 66 304 4.3 4.3 0.00 0.00 0.00 69 1018.3
20260507171403 66 328 3.5 5.2 0.00 0.00 0.00 68 1018.5
20260507170901 66 300 1.7 3.5 0.00 0.00 0.00 68 1018.2
20260507170357 66 309 1.7 2.6 0.00 0.00 0.00 67 1018.2
20260507165853 66 323 1.7 2.6 0.00 0.00 0.00 67 1018.2
20260507165349 66 300 2.6 3.5 0.00 0.00 0.00 66 1018.0
20260507164845 66 327 2.6 5.2 0.00 0.00 0.00 66 1018.1
20260507164343 66 339 0.9 3.5 0.00 0.00 0.00 64 1018.1
20260507163840 66 306 3.5 4.3 0.00 0.00 0.00 64 1018.1
20260507163337 67 312 1.7 3.5 0.00 0.00 0.00 62 1018.0
20260507162834 67 322 1.7 4.3 0.00 0.00 0.00 62 1017.9
20260507162329 67 331 1.7 4.3 0.00 0.00 0.00 65 1017.9
20260507161826 67 303 0.9 2.6 0.00 0.00 0.00 65 1017.9
20260507161323 67 309 2.6 4.3 0.00 0.00 0.00 65 1017.8
20260507160820 67 287 0.9 5.2 0.00 0.00 0.00 65 1017.8
20260507160315 68 304 0.9 7.0 0.00 0.00 0.00 65 1017.8
20260507155812 68 317 1.7 6.1 0.00 0.00 0.00 64 1017.9
20260507155308 68 308 2.6 4.3 0.00 0.00 0.00 64 1017.7
20260507154804 68 326 4.3 4.3 0.00 0.00 0.00 64 1017.8
20260507154302 68 300 1.7 4.3 0.00 0.00 0.00 64 1017.9
20260507153758 68 282 2.6 7.8 0.00 0.00 0.00 65 1018.0
20260507153255 68 322 2.6 4.3 0.00 0.00 0.00 65 1017.8
20260507152751 69 324 1.7 5.2 0.00 0.00 0.00 63 1017.9
20260507152248 69 336 3.5 4.3 0.00 0.00 0.00 63 1017.9
20260507151743 69 283 2.6 6.1 0.00 0.00 0.00 65 1017.7
20260507151240 69 324 2.6 8.7 0.00 0.00 0.00 64 1017.9
20260507150737 69 325 1.7 7.8 0.00 0.00 0.00 62 1017.8
20260507150234 69 302 4.3 7.0 0.00 0.00 0.00 62 1018.1
20260507145730 69 309 3.5 5.2 0.00 0.00 0.00 63 1017.9
20260507145226 70 315 3.5 5.2 0.00 0.00 0.00 62 1017.7
20260507144724 70 332 2.6 5.2 0.00 0.00 0.00 62 1017.9
20260507144221 70 341 5.2 5.2 0.00 0.00 0.00 62 1017.8
20260507143718 70 296 0.0 5.2 0.00 0.00 0.00 64 1017.8
20260507143215 70 308 7.8 9.6 0.00 0.00 0.00 63 1017.7
20260507142711 70 302 2.6 7.0 0.00 0.00 0.00 61 1017.9
20260507142208 71 318 3.5 4.3 0.00 0.00 0.00 61 1017.8